Grand Forks AFB, ND

5:56 PM CST on January 16, 2018 (GMT -0600)
Grand Forks Air Force Base

Weather History for KRDR - November, 2013

Change the Weather History Date:

Thursday, November 28, 2013

  Actual Average Record
Temperature  
Mean Temperature 10 °F -  
Max Temperature 19 °F 28 °F 50 °F (2002)
Min Temperature 0 °F 13 °F 0 °F (1996)
Degree Days  
Heating Degree Days 56    
Moisture  
Dew Point 8 °F    
Average Humidity 75    
Maximum Humidity 86    
Minimum Humidity 68    
Precipitation  
Precipitation 0.00 in - - ()
Sea Level Pressure  
Sea Level Pressure 30.37 in    
Wind  
Wind Speed 12 mph (North)    
Max Wind Speed 21 mph    
Max Gust Speed 24 mph    
Visibility 10 miles    
Events Snow    
Averages and records for this station are not official NWS values.
T = Trace of Precipitation, MM = Missing Value Source: NWS Daily Summary

Daily Weather History Graph

Daily Weather History Graph

Search for Another Location

Airport or City:

Trip Planner

Search our weather history database for the weather conditions in past years. The results will help you decide how hot, cold, wet, or windy it might be!

Date:

Astronomy

Nov. 28, 2013 Rise Set
Actual Time 7:54 AM CST 4:40 PM CST
Civil Twilight 7:19 AM CST 5:15 PM CST
Nautical Twilight 6:40 AM CST 5:54 PM CST
Astronomical Twilight 6:03 AM CST 6:31 PM CST
Moon 2:38 AM CST (11/28) 2:08 PM CST (11/28)
Length of Visible Light 9h 56m
Length of Day
8h 45m
Waning Crescent, 22% of the Moon is Illuminated
Nov 28
Waning Crescent
Dec 2
New
Dec 9
First Quarter
Dec 17
Full
Dec 25
Last Quarter

Hourly Weather History & Observations

Time (CST) Temp. Windchill Dew Point Humidity Pressure Visibility Wind Dir Wind Speed Gust Speed Precip Events Conditions
12:43 AM 19.4 °F 6.6 °F 14.0 °F 80% 30.14 in 10.0 mi North 12.7 mph - N/A Snow Light Snow
12:58 AM 19.9 °F 7.9 °F 14.0 °F 78% 30.22 in 10.0 mi North 11.5 mph - 0.00 in Snow Light Snow
1:08 AM 19.4 °F 6.6 °F 14.0 °F 80% 30.15 in 10.0 mi North 12.7 mph - N/A Snow Light Snow
1:28 AM 19.4 °F 6.0 °F 14.0 °F 80% 30.16 in 10.0 mi North 13.8 mph - N/A Snow Light Snow
1:33 AM 19.4 °F 6.0 °F 14.0 °F 80% 30.16 in 10.0 mi North 13.8 mph - N/A Snow Light Snow
1:56 AM 19.4 °F 4.1 °F 12.2 °F 74% 30.17 in 10.0 mi North 18.4 mph 24.2 mph N/A   Overcast
1:58 AM 19.2 °F 4.3 °F 12.2 °F 74% 30.24 in 10.0 mi North 17.3 mph 24.2 mph 0.00 in   Overcast
2:58 AM 16.5 °F 1.3 °F 10.2 °F 76% 30.28 in 10.0 mi North 16.1 mph 20.7 mph N/A   Clear
3:15 AM 15.8 °F -1.5 °F 10.4 °F 79% 30.21 in 10.0 mi North 20.7 mph 24.2 mph N/A   Partly Cloudy
3:17 AM 15.8 °F -0.2 °F 10.4 °F 79% 30.22 in 10.0 mi North 17.3 mph 24.2 mph N/A Snow Light Snow
3:48 AM 14.0 °F -0.2 °F 10.4 °F 86% 30.23 in 10.0 mi North 12.7 mph 23.0 mph N/A   Partly Cloudy
3:58 AM 14.7 °F 0.1 °F 9.5 °F 80% 30.31 in 10.0 mi North 13.8 mph - 0.00 in   Partly Cloudy
4:39 AM 14.0 °F 1.2 °F 8.6 °F 79% 30.26 in 10.0 mi North 10.4 mph - N/A Snow Light Snow
4:51 AM 14.0 °F 1.2 °F 10.4 °F 86% 30.26 in 10.0 mi North 10.4 mph - N/A   Mostly Cloudy
4:58 AM 14.4 °F 0.2 °F 9.7 °F 82% 30.33 in 10.0 mi North 12.7 mph - 0.00 in   Mostly Cloudy
5:00 AM 14.0 °F -0.8 °F 10.4 °F 86% 30.26 in 10.0 mi North 13.8 mph - N/A Snow Light Snow
5:10 AM 15.8 °F 2.1 °F 10.4 °F 79% 30.27 in 10.0 mi North 12.7 mph - N/A Snow Light Snow
5:25 AM 15.8 °F 0.3 °F 10.4 °F 79% 30.28 in 10.0 mi North 16.1 mph - N/A Snow Light Snow
5:30 AM 15.8 °F 0.3 °F 8.6 °F 73% 30.28 in 10.0 mi North 16.1 mph - N/A Snow Light Snow
5:35 AM 15.8 °F 1.4 °F 8.6 °F 73% 30.28 in 10.0 mi North 13.8 mph - N/A Snow Light Snow
5:36 AM 15.8 °F 1.4 °F 8.6 °F 73% 30.28 in 10.0 mi North 13.8 mph - N/A   Overcast
5:51 AM 15.8 °F 0.3 °F 8.6 °F 73% 30.29 in 10.0 mi North 16.1 mph 21.9 mph N/A   Overcast
5:54 AM 15.8 °F 0.9 °F 8.6 °F 73% 30.29 in 10.0 mi North 15.0 mph 21.9 mph N/A   Overcast
5:58 AM 15.4 °F 0.4 °F 9.0 °F 76% 30.36 in 10.0 mi North 15.0 mph 21.9 mph 0.00 in   Overcast
5:59 AM 15.8 °F 0.9 °F 8.6 °F 73% 30.29 in 10.0 mi North 15.0 mph 21.9 mph N/A Snow Light Snow
6:04 AM 15.8 °F 0.9 °F 8.6 °F 73% 30.30 in 10.0 mi North 15.0 mph - N/A Snow Light Snow
6:09 AM 15.8 °F 0.9 °F 8.6 °F 73% 30.30 in 10.0 mi North 15.0 mph - N/A Snow Light Snow
6:12 AM 15.8 °F 0.9 °F 8.6 °F 73% 30.30 in 10.0 mi NNE 15.0 mph - N/A   Overcast
6:17 AM 15.8 °F 0.9 °F 8.6 °F 73% 30.30 in 10.0 mi North 15.0 mph - N/A   Overcast
6:22 AM 15.8 °F 2.1 °F 8.6 °F 73% 30.31 in 10.0 mi NNE 12.7 mph - N/A   Overcast
6:25 AM 15.8 °F 1.4 °F 8.6 °F 73% 30.31 in 10.0 mi NNE 13.8 mph - N/A Snow Light Snow
6:35 AM 14.0 °F -0.2 °F 8.6 °F 79% 30.32 in 10.0 mi North 12.7 mph - N/A   Overcast
6:58 AM 14.7 °F 1.4 °F 8.8 °F 77% 30.40 in 10.0 mi North 11.5 mph - 0.00 in   Overcast
7:12 AM 14.0 °F 0.5 °F 8.6 °F 79% 30.33 in 10.0 mi North 11.5 mph - N/A Snow Light Snow
7:24 AM 14.0 °F 1.2 °F 8.6 °F 79% 30.33 in 10.0 mi North 10.4 mph - N/A   Overcast
7:32 AM 14.0 °F -0.8 °F 8.6 °F 79% 30.34 in 10.0 mi North 13.8 mph - N/A   Overcast
7:34 AM 14.0 °F -0.2 °F 8.6 °F 79% 30.34 in 10.0 mi North 12.7 mph - N/A Snow Light Snow
7:37 AM 14.0 °F 0.5 °F 8.6 °F 79% 30.34 in 10.0 mi North 11.5 mph - N/A   Overcast
7:38 AM 14.0 °F 1.2 °F 8.6 °F 79% 30.34 in 10.0 mi North 10.4 mph - N/A Snow Light Snow
7:58 AM 14.5 °F 1.9 °F 8.6 °F 77% 30.41 in 10.0 mi North 10.4 mph - 0.00 in Snow Light Snow
8:07 AM 14.0 °F 2.0 °F 8.6 °F 79% 30.35 in 10.0 mi North 9.2 mph - N/A   Overcast
8:21 AM 14.0 °F 1.2 °F 8.6 °F 79% 30.36 in 10.0 mi North 10.4 mph - N/A Snow Light Snow
8:31 AM 14.0 °F 2.0 °F 8.6 °F 79% 30.36 in 10.0 mi NNE 9.2 mph - N/A Snow Light Snow
8:35 AM 14.0 °F 2.0 °F 8.6 °F 79% 30.36 in 10.0 mi NNE 9.2 mph - N/A   Overcast
8:40 AM 14.0 °F 1.2 °F 8.6 °F 79% 30.36 in 10.0 mi NNE 10.4 mph - N/A Snow Light Snow
8:46 AM 14.0 °F 2.0 °F 8.6 °F 79% 30.37 in 10.0 mi NNE 9.2 mph - N/A   Overcast
8:58 AM 14.9 °F -0.3 °F 8.4 °F 76% 30.45 in 10.0 mi North 15.0 mph - 0.00 in   Overcast
8:59 AM 14.0 °F -0.2 °F 8.6 °F 79% 30.38 in 10.0 mi North 12.7 mph - N/A   Overcast
9:00 AM 14.0 °F 0.5 °F 8.6 °F 79% 30.38 in 10.0 mi North 11.5 mph - N/A Snow Light Snow
9:10 AM 15.8 °F 1.4 °F 8.6 °F 73% 30.39 in 10.0 mi North 13.8 mph - N/A Snow Light Snow
9:11 AM 15.8 °F 2.1 °F 8.6 °F 73% 30.39 in 10.0 mi North 12.7 mph - N/A   Overcast
9:16 AM 14.0 °F -0.2 °F 8.6 °F 79% 30.39 in 10.0 mi North 12.7 mph - N/A   Overcast
9:58 AM 15.1 °F 2.5 °F 7.5 °F 72% 30.47 in 10.0 mi North 10.4 mph - 0.00 in   Overcast
10:13 AM 15.8 °F 1.4 °F 8.6 °F 73% 30.41 in 10.0 mi North 13.8 mph - N/A   Scattered Clouds
10:58 AM 17.2 °F 5.2 °F 8.8 °F 69% 30.48 in 10.0 mi North 10.4 mph - N/A   Clear
11:01 AM 17.6 °F 4.3 °F 8.6 °F 68% 30.41 in 10.0 mi NNE 12.7 mph - N/A   Partly Cloudy
11:16 AM 17.6 °F 6.4 °F 8.6 °F 68% 30.41 in 10.0 mi North 9.2 mph - N/A   Mostly Cloudy
11:26 AM 17.6 °F 5.0 °F 8.6 °F 68% 30.41 in 10.0 mi North 11.5 mph - N/A   Scattered Clouds
11:41 AM 17.6 °F 5.7 °F 8.6 °F 68% 30.42 in 10.0 mi North 10.4 mph - N/A   Mostly Cloudy
11:58 AM 17.6 °F 5.0 °F 9.3 °F 70% 30.49 in 10.0 mi North 11.5 mph - N/A   Mostly Cloudy
12:03 PM 17.6 °F 4.3 °F 10.4 °F 73% 30.42 in 10.0 mi North 12.7 mph - N/A   Mostly Cloudy
12:04 PM 17.6 °F 4.3 °F 8.6 °F 68% 30.42 in 10.0 mi North 12.7 mph - N/A Snow Light Snow
12:09 PM 17.6 °F 4.3 °F 8.6 °F 68% 30.42 in 10.0 mi North 12.7 mph - N/A Snow Light Snow
12:10 PM 17.6 °F 4.3 °F 8.6 °F 68% 30.42 in 10.0 mi North 12.7 mph - N/A Snow Light Snow
12:35 PM 17.6 °F 6.4 °F 8.6 °F 68% 30.42 in 10.0 mi North 9.2 mph - N/A Snow Light Snow
12:40 PM 17.6 °F 5.0 °F 8.6 °F 68% 30.42 in 10.0 mi North 11.5 mph - N/A Snow Light Snow
12:45 PM 15.8 °F 2.1 °F 8.6 °F 73% 30.42 in 10.0 mi North 12.7 mph - N/A Snow Light Snow
12:52 PM 17.6 °F 5.0 °F 8.6 °F 68% 30.42 in 10.0 mi North 11.5 mph - N/A   Overcast
12:58 PM 17.1 °F 5.8 °F 8.6 °F 69% 30.48 in 10.0 mi North 9.2 mph - 0.00 in   Mostly Cloudy
1:02 PM 17.6 °F 5.0 °F 8.6 °F 68% 30.41 in 10.0 mi North 11.5 mph - N/A Snow Light Snow
1:10 PM 15.8 °F 4.2 °F 8.6 °F 73% 30.42 in 10.0 mi North 9.2 mph - N/A   Mostly Cloudy
1:15 PM 17.6 °F 5.7 °F 8.6 °F 68% 30.42 in 10.0 mi North 10.4 mph - N/A   Mostly Cloudy
1:20 PM 17.6 °F 6.4 °F 8.6 °F 68% 30.42 in 10.0 mi North 9.2 mph - N/A   Mostly Cloudy
1:45 PM 17.6 °F 6.4 °F 8.6 °F 68% 30.42 in 10.0 mi North 9.2 mph - N/A   Overcast
1:50 PM 17.6 °F 6.4 °F 8.6 °F 68% 30.42 in 10.0 mi North 9.2 mph - N/A   Mostly Cloudy
1:58 PM 17.6 °F 6.4 °F 8.6 °F 68% 30.49 in 10.0 mi North 9.2 mph - 0.00 in   Mostly Cloudy
2:08 PM 17.6 °F 7.3 °F 8.6 °F 68% 30.42 in 10.0 mi North 8.1 mph - N/A   Mostly Cloudy
2:23 PM 17.6 °F 6.4 °F 8.6 °F 68% 30.42 in 10.0 mi North 9.2 mph - N/A   Mostly Cloudy
2:24 PM 17.6 °F 6.4 °F 8.6 °F 68% 30.42 in 10.0 mi North 9.2 mph - N/A   Mostly Cloudy
2:34 PM 15.8 °F 7.2 °F 8.6 °F 73% 30.42 in 10.0 mi North 5.8 mph - N/A   Scattered Clouds
2:44 PM 15.8 °F 5.1 °F 8.6 °F 73% 30.42 in 10.0 mi North 8.1 mph - N/A   Mostly Cloudy
2:46 PM 15.8 °F 6.1 °F 8.6 °F 73% 30.42 in 10.0 mi North 6.9 mph - N/A   Mostly Cloudy
2:51 PM 15.8 °F 6.1 °F 8.6 °F 73% 30.42 in 10.0 mi North 6.9 mph - N/A   Mostly Cloudy
2:58 PM 16.2 °F 6.5 °F 8.2 °F 71% 30.50 in 10.0 mi North 6.9 mph - N/A   Mostly Cloudy
3:03 PM 15.8 °F 7.2 °F 8.6 °F 73% 30.42 in 10.0 mi North 5.8 mph - N/A   Scattered Clouds
3:05 PM 15.8 °F 6.1 °F 8.6 °F 73% 30.42 in 10.0 mi North 6.9 mph - N/A   Mostly Cloudy
3:15 PM 15.8 °F 7.2 °F 8.6 °F 73% 30.43 in 10.0 mi North 5.8 mph - N/A   Scattered Clouds
3:58 PM 15.1 °F 6.4 °F 8.4 °F 75% 30.52 in 10.0 mi NNE 5.8 mph - N/A   Partly Cloudy
4:58 PM 10.0 °F 1.8 °F 5.7 °F 83% 30.53 in 10.0 mi NE 4.6 mph - N/A   Clear
5:58 PM 8.6 °F -1.3 °F 4.6 °F 84% 30.54 in 10.0 mi ENE 5.8 mph - N/A   Clear
6:58 PM 6.6 °F -0.3 °F 2.8 °F 84% 30.54 in 10.0 mi ENE 3.5 mph - N/A   Clear
7:58 PM 5.5 °F - 2.1 °F 86% 30.54 in 10.0 mi East 2.3 mph - N/A   Clear
8:58 PM 2.7 °F - -0.8 °F 86% 30.54 in 10.0 mi SSE 2.3 mph - N/A   Clear
9:58 PM 1.2 °F - -2.6 °F 84% 30.54 in 10.0 mi SSW 2.3 mph - N/A   Clear
10:58 PM -0.0 °F - -4.2 °F 83% 30.54 in 10.0 mi Calm Calm - N/A   Clear
11:58 PM 2.8 °F - -0.9 °F 84% 30.52 in 10.0 mi SW 2.3 mph - N/A   Clear